Time,TemperatureF,DewpointF,PressureIn,WindDirection,WindDirectionDegrees,WindSpeedMPH,WindSpeedGustMPH,Humidity,HourlyPrecipIn,Conditions,Clouds,dailyrainin,SoftwareType,DateUTC
2017-07-24 00:02:00,76.7,76.1,29.94,East,90,1.6,2.7,98,0.00,,---,0.00,VWS V15.00,2017-07-24 10:02:00,
2017-07-24 00:07:00,76.4,75.8,29.94,East,90,0.0,2.5,98,0.00,,---,0.00,VWS V15.00,2017-07-24 10:07:00,
2017-07-24 00:12:00,76.2,75.6,29.94,SE,135,3.1,3.1,98,0.00,,---,0.00,VWS V15.00,2017-07-24 10:12:00,
2017-07-24 00:17:00,76.0,75.4,29.94,South,180,2.9,4.0,98,0.00,,---,0.00,VWS V15.00,2017-07-24 10:17:00,
2017-07-24 00:22:00,76.2,75.6,29.94,SSE,158,1.6,6.0,98,0.00,,---,0.00,VWS V15.00,2017-07-24 10:22:00,
2017-07-24 00:27:00,76.4,75.8,29.94,East,90,1.1,1.1,98,0.00,,---,0.00,VWS V15.00,2017-07-24 10:27:00,
2017-07-24 00:32:00,76.2,75.6,29.97,SE,135,2.0,2.0,98,0.00,,---,0.00,VWS V15.00,2017-07-24 10:32:00,
2017-07-24 00:37:00,76.2,75.6,29.97,ENE,68,0.0,2.9,98,0.00,,---,0.00,VWS V15.00,2017-07-24 10:37:00,
2017-07-24 00:42:00,76.0,75.4,29.97,NNE,22,0.0,0.9,98,0.00,,---,0.00,VWS V15.00,2017-07-24 10:42:00,
2017-07-24 00:47:00,75.5,74.9,29.97,East,90,0.0,2.2,98,0.00,,---,0.00,VWS V15.00,2017-07-24 10:47:00,
2017-07-24 00:52:00,75.1,74.5,29.97,NNE,22,0.0,1.3,98,0.00,,---,0.00,VWS V15.00,2017-07-24 10:52:00,
2017-07-24 00:57:00,74.7,74.1,29.97,East,90,0.0,1.1,98,0.00,,---,0.00,VWS V15.00,2017-07-24 10:57:00,
2017-07-24 01:02:00,74.6,74.0,29.97,NE,45,0.0,0.0,98,0.00,,---,0.00,VWS V15.00,2017-07-24 11:02:00,
2017-07-24 01:07:00,74.6,74.0,29.97,NNE,22,0.0,0.0,98,0.00,,---,0.00,VWS V15.00,2017-07-24 11:07:00,
2017-07-24 01:12:00,74.6,74.0,29.97,NE,45,0.0,0.0,98,0.00,,---,0.00,VWS V15.00,2017-07-24 11:12:00,
2017-07-24 01:17:00,74.6,74.0,29.97,North,0,0.0,0.0,98,0.00,,---,0.00,VWS V15.00,2017-07-24 11:17:00,
2017-07-24 01:22:00,74.6,74.0,29.97,NE,45,0.0,0.0,98,0.00,,---,0.00,VWS V15.00,2017-07-24 11:22:00,
2017-07-24 01:27:00,74.6,74.0,29.97,NE,45,0.0,0.9,98,0.00,,---,0.00,VWS V15.00,2017-07-24 11:27:00,
2017-07-24 01:32:00,74.6,74.0,29.97,NNE,22,1.3,2.0,98,0.00,,---,0.00,VWS V15.00,2017-07-24 11:32:00,
2017-07-24 01:37:00,74.4,73.8,29.97,NNE,22,1.1,1.1,98,0.00,,---,0.00,VWS V15.00,2017-07-24 11:37:00,
2017-07-24 01:42:00,74.2,73.6,29.97,NNE,22,0.0,0.0,98,0.00,,---,0.00,VWS V15.00,2017-07-24 11:42:00,
2017-07-24 01:47:00,74.0,73.4,29.97,NNE,22,0.0,0.0,98,0.00,,---,0.00,VWS V15.00,2017-07-24 11:47:00,
2017-07-24 01:52:00,74.0,73.4,29.97,NNE,22,0.0,0.0,98,0.00,,---,0.00,VWS V15.00,2017-07-24 11:52:00,
2017-07-24 01:57:00,74.0,73.4,29.97,North,0,0.0,2.0,98,0.00,,---,0.00,VWS V15.00,2017-07-24 11:57:00,
2017-07-24 02:02:00,73.8,73.2,29.97,NNE,22,0.0,0.0,98,0.04,,---,0.04,VWS V15.00,2017-07-24 12:02:00,
2017-07-24 02:07:00,74.0,73.4,29.97,SSE,158,0.0,0.0,98,0.04,,---,0.04,VWS V15.00,2017-07-24 12:07:00,